Location: Ch�tillon
(48.8024°N, 2.2935°E)
Time: 02:54:32
(UTC+00:00)

DIWATA 2B (PO-101) - Pass Details

Date: 29 June 2022
Orbit: 583 x 599 km, 98.0° (Epoch: 13 August)

Event Time Altitude Azimuth Distance (km) Brightness Sun altitude
Exits shadow 02:59:31 - 232° (SW) 2,066 ? -7.0°
Reaches altitude 10° 03:00:05 10° 239° (WSW) 1,938 ? -6.9°
Maximum altitude 03:02:19 14° 271° (W) 1,692 ? -6.7°
Drops below altitude 10° 03:04:34 10° 303° (WNW) 1,948 ? -6.4°
Sets 03:07:45 0° 329° (NNW) 2,858 ? -6.0°
